OBJECT AK, 57199

Orbit data source: Space-Track

You're viewing an Uncataloged Satellite

Recently launched and/or uncataloged satellites may have evolving metadata. Metadata may include but not limited to: Owner, Maufacturer, Bus, Motor, and Mission.

OBJECT AK, 57199 is a satellite in SSO that was launched on Tue, 27 Jun 2023 UTC via a SOYUZ-2-1B launch vehicle from the Vostochny Cosmodrome (VOSTO). Unknown objects in Earth's orbit typically refer to objects detected orbiting the Earth but have not yet been identified or cataloged. These objects could be anything from previously untracked satellites, spent rocket stages, debris from satellite collisions, or even natural meteoroids temporarily captured by Earth's gravity.

Loading next visibility...
Identifier
57199, 2023-091AK
Orbit
SSO
Country
Flag of TBDTBD
Related business
Manufacturer
Sputniks
Mission
Operational Commercial Communications
Bus & Motor
CUBESAT 3U?, Unknown motor
Mass
3 kg wet, 3 kg dry
Launch date (UTC)
2023-06-27 (3 years ago)
Launch vehicle
SOYUZ-2-1B
Launch site
Vostochny Cosmodrome (VOSTO)
Object type
Unknown
Shape & HBR
Box, 0.1 m
Radar Cross Section
0.035 m², Medium (>0.1 m² and < 1m²)

Expand to show TLE details & history
Last TLE update: 5 days ago

TLE from 5 days ago
0 OBJECT AK
1 57199U 23091AK  26155.24002859  .00022502  00000-0  60067-3 0  9998
2 57199  97.5081 225.4777 0007993 118.0781 242.1273 15.38097459162776
Epoch: 2026-06-04T05:45Z
TLE epoch observation values (Epoch: 2026-06-04T05:45:38.470Z)
Latitude
0.00003°
Longitude
-113.61973°
Altitude
457.404 km
Speed
7.637 km/s
True Right ascension
15h 01m 54s
True Declination
0° 00' 00"
Sunlit
Object was in full shadow at epoch
Visualization orbit readout
Latitude
Unknown
Longitude
Unknown
Altitude
Unknown
Speed
Unknown
Apparent Right ascension
Unknown
Apparent Declination
Unknown
Sunlit
N/A
Visualization observer readout
Local Sidereal Time
18:56:38
Azimuth
Unknown
Elevation
Unknown
Doppler factor
Unknown
Orbital elements
Apogee altitude
454.138 km
Perigee altitude
443.225 km
Semi-major axis
6,826.819 km
Eccentricity
0.0008
Inclination
97.5081°
RAAN
225.4777°
Arg. of periapsis
118.0781°
True anomaly
242.04637°
Mean anomaly
242.1273°
Eccentric anomaly
242.08683°
Mean motion
3.84783 °/min
Orbital period
93.56 mins
BSTAR
0.00060067
Loading maneuver chart data...
Computing Atmospheric mass density...
Loading historical data...
Loading historical data...
Loading historical data...
Loading historical data...
Loading historical data...
Loading historical data...
Loading historical data...

Documentation

Showing up to 5 results
|